This is the latest recevied weather packets stored in our database for station/object KD0KHX-10. If no packets are shown the sender has not sent any weather packets the latest 10 day(s).
| Time | Temp. | Humidity | Pressure | Rain* | Wind** | Luminosity | Snow |
|---|---|---|---|---|---|---|---|
| 1777500603 | 15° C | 47% | 1011.5 hPa | 0 mm | - | - | - |
| 1777500303 | 15.56° C | 46% | 1011.6 hPa | 0 mm | - | - | - |
| 1777500003 | 15.56° C | 48% | 1011.5 hPa | 0 mm | - | - | - |
| 1777499703 | 15° C | 49% | 1011.6 hPa | 0 mm | - | - | - |
| 1777499403 | 14.44° C | 48% | 1011.7 hPa | 0 mm | - | - | - |
| 1777499238 | 14.44° C | 48% | 1011.6 hPa | 0 mm | - | - | - |
| 1777498803 | 14.44° C | 50% | 1011.7 hPa | 0 mm | - | - | - |
| 1777498638 | 14.44° C | 51% | 1011.8 hPa | 0 mm | - | - | - |
| 1777498203 | 13.89° C | 51% | 1011.8 hPa | 0 mm | - | - | - |
| 1777497903 | 13.89° C | 52% | 1011.9 hPa | 0 mm | - | - | - |
| 1777497603 | 13.89° C | 52% | 1011.9 hPa | 0 mm | - | - | - |
| 1777497303 | 13.33° C | 52% | 1011.9 hPa | 0 mm | - | - | - |
| 1777497003 | 13.33° C | 52% | 1012.1 hPa | 0 mm | - | - | - |
| 1777496703 | 13.33° C | 53% | 1012.1 hPa | 0 mm | - | - | - |
| 1777496403 | 13.33° C | 54% | 1012.2 hPa | 0 mm | - | - | - |
| 1777496103 | 13.33° C | 54% | 1012.3 hPa | 0 mm | - | - | - |
| 1777495803 | 13.33° C | 54% | 1012.3 hPa | 0 mm | - | - | - |
| 1777495503 | 12.78° C | 58% | 1012.5 hPa | 0 mm | - | - | - |
| 1777495472 | 12.78° C | 58% | 1012.5 hPa | 0 mm | - | - | - |
| 1777495037 | 12.22° C | 56% | 1012.6 hPa | 0 mm | - | - | - |
| 1777494738 | 12.22° C | 56% | 1012.7 hPa | 0 mm | - | - | - |
| 1777494303 | 12.22° C | 56% | 1012.9 hPa | 0 mm | - | - | - |
| 1777494003 | 12.22° C | 57% | 1013 hPa | 0 mm | - | - | - |
| 1777493703 | 12.22° C | 56% | 1012.8 hPa | 0 mm | - | - | - |
| 1777493674 | 12.22° C | 56% | 1012.8 hPa | 0 mm | - | - | - |
* Rain latest hour (hover to see other rain measurements)
** Current wind speed in m/s (hover to see current wind gust speed)